Torna al catalogo

KUIPER-00048

AttivoComunicazioniLEO
NORAD 64508·PAYLOAD·🇺🇸 United States

Lanciato Jun 23, 2025 da Cape Canaveral Space Force Station

Loading…

Prossimi Passaggi (prossime 24 ore)

TLE

AggiornatoSource: CelesTrak SupGP

Epoca: Sep 14, 2026, 22:25 UTC

1 64508C 25134J   26257.93431713  .00005082  00000+0  66555-3 0  2572
2 64508  51.8974  98.7235 0000787 106.1877 248.9347 14.79904666    15

Traccia KUIPER-00048 in tempo reale con AllMySat

Download on the App Store